Tracking 28790 objects as of 19-Apr-2024
HD Live streaming from Space Station
objects crossing your sky now

INS-2TD

Track INS-2TD now!
10-day predictions
INS-2TD is classified as:


NORAD ID: 51658
Int'l Code: 2022-013C
Perigee: 452.9 km
Apogee: 461.1 km
Inclination: 97.5 °
Period: 93.6 minutes
Semi major axis: 6827 km
RCS: Unknown
Launch date: February 14, 2022
Source: India (IND)
Launch site: SRIHARIKOTA (SRI)

Uplink (MHz):
Downlink (MHz): 435.080
Beacon (MHz):
Mode: 1200bps FSK
Call sign: INDUSR
Status: Active

Your satellite tracking list
Your tracking list is empty




NASA's NSSDC Master Catalog

Two Line Element Set (TLE):
1 51658U 22013C   24109.51974630  .00055029  00000-0  14305-2 0  9990
2 51658  97.5268 130.9293 0006032  26.3965 333.7586 15.38732154120808
Source of the keplerian elements: AFSPC